Location: Pedimozza
(42.0500°N, 9.3500°E)
Time: 17:02:02
(UTC+00:00)

USA 229 DEB - Pass Details

Date: 19 August 2019
Orbit: 996 x 1216 km, 63.4° (Epoch: 08 October)

Event Time Altitude Azimuth Distance (km) Brightness Sun altitude
Rises 21:45:57 0° 325° (NW) 3,960 7.8 -30.7°
Reaches altitude 10° 21:48:36 10° 327° (NNW) 3,029 7.0 -30.9°
Maximum altitude 21:55:54 78° 54° (NE) 1,205 3.8 -31.5°
Enters shadow 21:56:15 76° 83° (E) 1,214 3.8 -31.5°
